Preview of NWS' New Version of Forecast
This preview is not operational and should not be used for support decisions.

Regional Weather Roundup (RWR)

Issued by National Weather Service (NWS)

                            
000
ASUS44 KJAN 190310
RWRMS 

MISSISSIPPI HOURLY WEATHER ROUNDUP
NATIONAL WEATHER SERVICE JACKSON MS
1000 PM CDT WED SEP 18 2019

NOTE: "FAIR: INDICATES FEW OR NO CLOUDS BELOW 12,000 FEET WITH NO
SIGNIFICANT WEATHER AND/OR OBSTRUCTIONS TO VISIBILITY.

MSZ001>002-007>008-010>013-018>021-025>028-034>036-190400-
NORTHWEST MISSISSIPPI
  
CITY           SKY/WX    TMP DP  RH WIND       PRES   REMARKS
BATESVILLE       N/A     75  72  88 CALM      29.97S                  
CLARKSDALE       N/A     81  66  61 CALM      29.96S                  
CLEVELAND      FAIR      81  68  63 CALM      29.96R                  
GREENWOOD      FAIR      79  73  82 CALM      29.96R                  
GREENVILLE     FAIR      83  71  67 SW8       29.97R                  
OLIVE BRANCH     N/A     82  68  61 NE5       29.98S                  
OXFORD         FAIR      75  68  78 CALM      30.00S                  
TUNICA         DRIZZLE   73  68  83 NE5       29.98R                  
WINONA         FAIR      74  72  95 CALM      29.97R                  
$$

MSZ003>006-009-014>017-022>024-029>033-037>039-190400-
NORTHEAST MISSISSIPPI
  
CITY           SKY/WX    TMP DP  RH WIND       PRES   REMARKS
ABERDEEN       FAIR      72  54  53 CALM      29.99R                  
COLUMBUS AFB   FAIR      76  72  87 CALM      29.97R                  
CORINTH        FAIR      73  70  88 CALM      30.00R                  
GOLDN TRIANGLE FAIR      77  71  82 CALM      29.98R                  
STARKVILLE       N/A     73  70  88 CALM      29.99R                  
TUPELO           N/A     80  70  71 MISG      29.98R                  
$$

MSZ040-058-190400-
CENTRAL MISSISSIPPI
  
CITY           SKY/WX    TMP DP  RH WIND       PRES   REMARKS
JACKSON INTL   FAIR      80  69  69 W3        29.98R                  
JACKSON HAWKNS FAIR      80  70  71 W3        29.99R                  
MADISON        FAIR      79  70  73 W3        29.99R                  
MERIDIAN KEY   LGT RAIN  78  71  79 SW5       29.98F                  
MERIDIAN NAS   MOCLDY    83  67  58 W7        29.99R                  
RAYMOND        FAIR      75  75 100 CALM      29.98R                  
VICKSBURG VKS  CLEAR     75  75 100 CALM      29.98R                  
$$

MSZ059>079-190400-
SOUTH MISSISSIPPI
  
CITY           SKY/WX    TMP DP  RH WIND       PRES   REMARKS
BROOKHAVEN     FAIR      75  72  88 CALM      30.01S                  
HATTIESBURG    FAIR      80  71  74 CALM      29.98R                  
LAUREL         CLEAR     79  71  77 SW3       29.97R                  
MCCOMB         FAIR      74  70  87 CALM      29.99S                  
NATCHEZ        FAIR      73  72  96 CALM      29.99S                  
PINE BELT        N/A    N/A N/A N/A MISG        N/A                   
$$

MSZ080>082-190400-
COASTAL MISSISSIPPI
  
CITY           SKY/WX    TMP DP  RH WIND       PRES   REMARKS
BILOXI         FAIR      79  73  80 CALM      29.97S                  
PASCAGOULA     FAIR      74  71  91 CALM      29.97S                  
GULFPORT       FAIR      79  73  82 CALM      29.96S                  
$$

LAZ007>009-015>016-023>026-190400-
NORTHEAST LOUISIANA
  
CITY           SKY/WX    TMP DP  RH WIND       PRES   REMARKS
BASTROP        FAIR      75  73  93 CALM      29.98R                  
TALLULAH/VBURG FAIR      78  71  79 CALM      29.97R                  
VIDALIA        FAIR     N/A N/A N/A CALM      29.97S                  
$$